STARLINK-3102 (49151 NORAD) Tracking and Keplerian Element Data

This shows tracking and keplerian element data for the satellite.

Feedback or suggestion? Click here.




ElementValue
Catalog49151
NameSTARLINK-3102
Epoch Orbit367
Epoch Day300.58334491
Epoch Year2021
RAAN4.6999
Inclination70.0005
Eccentricity0.0004089
Argument of Perigee294.0389
Mean Anonmoly83.1586
Mean Motion15.69751722
Decay Rate-0.00031752
L11 49151U 21082X 21300.58334491 -.00031752 00000-0 -26513-3 0 9996
L22 49151 70.0005 4.6999 0004089 294.0389 83.1586 15.69751722 3679

Live tracking and technical data element details for STARLINK-3102 (NORAD 49151). STARLINK-3102 can be tracked NOW for your location showing map with azimuth and elevation plus other details from your city location.

Track the satellite on the map from your city or location and see movement details for azimuth, elevation, latitude, longitude, range, height, and movement on the map or in text.







IsCatalogInMostPopularTable: catalog: 49151, numindb: 13
Update: records affected: 1



GetName: 49151 STARLINK-3102

Hit Count: updated at: Thu, 28 Oct 2021 12:20:32 GMT